Regional Weather Roundup
Issued by NWS

Home | Current Version | Previous Version | Graphics & Text | Print | Product List | Glossary On
Versions: 1 2 3 4 5 6 7 8 9 10 11 12 13 14 15 16 17 18 19 20 21 22 23 24 25 26 27 28 29 30 31 32 33 34 35 36 37 38 39 40 41 42 43 44 45 46 47 48 49 50
336
ASUS44 KMEG 211510
RWRTN
TENNESSEE HOURLY STATE WEATHER ROUNDUP
NATIONAL WEATHER SERVICE MEMPHIS TN
900 AM CST TUE FEB 21 2017

TNZ002-004-019-021-049-052-054-088>092-211600-
WEST TENNESSEE

CITY           SKY/WX    TMP DP  RH WIND       PRES   REMARKS
MEMPHIS INTL   CLOUDY    61  59  93 S12       29.88R
NWS MEMPHIS      N/A     59 N/A N/A MISG        N/A
JACKSON        MOSUNNY   61  56  83 SE9G18    29.85F
UNION CITY     CLOUDY   N/A N/A N/A CALM      29.89R
PARIS          CLOUDY    55  52  88 E8        29.91F
HUNTINGDON     MOSUNNY   59  55  88 E8        29.88F
$$

TNZ008-025-027-028-033-062-065-066-211600-
NORTH MIDDLE TENNESSEE

CITY           SKY/WX    TMP DP  RH WIND       PRES   REMARKS
NASHVILLE      CLOUDY    63  48  58 SE8       29.99F
PORTLAND       SUNNY     64  48  55 S9        30.00F
CLARKSVILLE    MOSUNNY   63  50  62 VRB7      29.98R
SMYRNA         MOSUNNY   64  52  64 SE6       30.00F
COOKEVILLE     SUNNY     64  48  55 S10G16    30.01F
GALLATIN       SUNNY     63  48  59 E6        30.03S
CROSSVILLE     SUNNY     60  43  53 S6        30.07F
$$

TNZ061-075-076-078-094-096-097-211600-
SOUTH MIDDLE TENNESSEE

CITY           SKY/WX    TMP DP  RH WIND       PRES   REMARKS
FAYETTEVILLE   PTSUNNY   63  52  67 S16G23    30.01S
TULLAHOMA      PTSUNNY   64  48  55 S16       30.02S
MCMINNVILLE    SUNNY     66  52  59 S10       30.02S
COLUMBIA       CLOUDY    61  61 100 SE8       29.97S
SHELBYVILLE    MOSUNNY   66  54  63 SE12      30.00F
$$

TNZ017-018-042-046-047-211600-
NORTHEAST TENNESSEE

CITY           SKY/WX    TMP DP  RH WIND       PRES   REMARKS
TRI CITIES     PTSUNNY   59  43  55 CALM      30.12F
ELIZABETHTON   MOSUNNY   63  41  45 E13       30.12F
$$

TNZ012-013-036-069-073-074-211600-
CENTRAL EAST TENNESSEE

CITY           SKY/WX    TMP DP  RH WIND       PRES   REMARKS
KNOXVILLE      PTSUNNY   57  45  64 CALM      30.07S
OAK RIDGE      CLOUDY    57  44  62 CALM      30.09F
GATLINBURG     SUNNY     52  43  71 CALM      30.07F
MORRISTOWN     SUNNY     63  39  42 SE7G13    30.08F
JACKSBORO      SUNNY     54  45  71 NE5       30.11F
$$

TNZ083-085-099-211600-
SOUTHEAST TENNESSEE

CITY           SKY/WX    TMP DP  RH WIND       PRES   REMARKS
CHATTANOOGA    PTSUNNY   61  47  59 CALM      30.07F
$$

SKY/WX REPORTED AS FAIR MEANS FEW OR NO CLOUDS BELOW
12 THOUSAND FEET.





USA.gov is the U.S. government's official web portal to all federal, state and local government web resources and services.